Tracking 25686 objects as of 25-May-2022
HD Live streaming from Space Station
objects crossing your sky now

OPTUS B1 R/B(STAR 63F)

Track OPTUS B1 R/B(STAR 63F) now!


NORAD ID: 22089
Int'l Code: 1992-054C
Perigee: 420.1 km
Apogee: 36,365.1 km
Inclination: 23.5 °
Period: 646.4 minutes
Semi major axis: 24763 km
RCS: 6.8742 m2 (large)
Launch date: August 13, 1992
Source: Australia (AUS)
Launch site: Xichang Space Center, China (XSC)

Note: This is a ROCKET BODY
aabbcc
Your satellite tracking list
Your tracking list is empty




NASA's NSSDC Master Catalog

Two Line Element Set (TLE):
1 22089U 92054C   22144.78958590  .00000472  00000-0  15474-2 0  9991
2 22089  23.5105  27.9283 7257643 116.5454 332.1025  2.22783580239726
Source of the keplerian elements: AFSPC